Date,TemperatureHighF,TemperatureAvgF,TemperatureLowF,DewpointHighF,DewpointAvgF,DewpointLowF,HumidityHigh,HumidityAvg,HumidityLow,PressureMaxIn,PressureMinIn,WindSpeedMaxMPH,WindSpeedAvgMPH,GustSpeedMaxMPH,PrecipitationSumIn
2013-8-2,89.0,81.2,72.0,70.1,68.2,65.6,81,65,50,29.94,29.82,25,9,34,0.00
2013-8-3,73.1,70.1,68.7,67.0,65.2,64.0,87,84,81,29.93,29.90,5,1,0,0.00
2013-8-6,84.1,76.9,70.8,69.6,65.8,-99.9,80,72,58,29.95,29.84,255,11,30,0.00
2013-8-7,87.5,77.5,68.7,70.5,66.6,63.5,86,70,49,29.96,29.85,24,8,35,0.00
2013-8-8,88.3,77.1,66.6,70.8,66.2,60.7,83,70,49,29.98,29.87,20,7,31,0.00
2013-8-9,85.3,76.5,68.2,73.6,69.5,62.4,95,79,62,29.97,29.83,23,11,36,0.07
2013-8-10,84.8,78.9,73.9,76.2,73.6,70.9,96,84,72,29.93,29.84,11,3,20,0.06
2013-8-11,90.1,79.3,73.8,73.5,71.3,68.9,89,77,55,29.94,29.84,18,6,29,0.06
2013-8-12,84.8,78.1,72.9,71.3,69.5,67.4,86,75,62,29.97,29.87,24,14,34,0.00
2013-8-13,87.0,78.8,73.5,71.3,68.1,64.9,83,70,50,29.94,29.82,22,12,35,0.00
2013-8-14,88.8,79.2,69.7,70.4,67.6,64.4,85,68,50,29.93,29.80,26,8,35,0.00
2013-8-15,86.1,74.1,68.6,68.8,66.9,63.8,87,78,51,29.93,29.86,16,6,28,0.00
2013-8-16,78.7,72.5,67.6,72.0,66.7,62.3,88,82,73,29.93,29.87,18,5,27,0.00
2013-8-17,83.9,76.9,72.4,68.5,67.2,64.8,82,72,57,29.94,29.89,17,8,27,0.00
2013-8-18,89.0,78.1,66.7,70.2,66.4,62.0,87,69,49,29.93,29.81,19,8,32,0.00
2013-8-19,85.7,76.5,66.3,71.5,66.2,58.8,83,71,55,29.92,29.84,18,6,24,0.00
2013-8-20,86.3,77.7,69.9,72.2,69.5,65.6,90,76,57,29.92,29.82,17,5,21,0.00
2013-8-21,86.6,78.5,70.3,72.3,69.6,65.6,86,75,55,29.89,29.80,17,5,23,0.00
2013-8-22,88.9,78.6,70.4,73.0,69.7,66.4,89,75,51,29.90,29.77,24,8,33,0.00
2013-8-23,86.6,79.0,71.6,71.8,69.5,65.6,90,73,54,29.91,29.81,22,11,32,0.00
2013-8-24,71.4,70.4,69.5,66.5,65.6,64.5,86,85,83,29.91,29.89,2,1,0,0.00
2013-8-28,84.0,79.6,74.4,71.2,69.8,65.0,87,72,56,29.90,29.81,255,10,24,0.00
2013-8-29,84.3,77.6,70.9,72.5,69.4,65.6,86,76,63,29.87,29.75,24,10,33,0.00
2013-8-30,89.0,78.9,69.4,70.7,68.0,64.8,88,70,52,29.94,29.82,14,5,23,0.00
2013-8-31,88.5,78.5,69.9,69.9,66.8,62.2,85,68,43,29.94,29.81,23,8,35,0.00